Temp
4 4 3 3 3 3 -0 -1 -2 -1 -1 -1 -1 -1 -1 -1 -1 -1 -1 -1 -2 -2 -1 -1 -1 -1 -1 -1 -1 -1 -2 -3 -2 -2 -1 -1 -2 -1 -2 -0 -1 -1 -1 -2 -2 -0 0 0 2 2 -0 -0 -1 0
4 3 3 3 3 1 1 -0 -1 -1 -1 -1 -1 -1 -1 -1 -0 -1 -1 -1 -1 -2 -1 -1 -1 -1 -2 -2 -2 -2 -1 -2 -2 -2 -2 -1 0 -1 -1 0 -3 -2 -1 1 0 1 0 -0 -1 -3 -3 -2 -2 -1
4 3 3 2 2 2 2 2 2 1 0 -0 -2 -2 -2 -2 -1 -1 -1 -1 -1 -2 -2 -2 0 -0 -0 -1 -2 -3 -2 -2 -2 -2 -2 -1 -2 -2 0 -2 -2 -3 -2 -1 -1 -0 -1 -3 -4 -5 -5 -5 -3 -2
4 3 2 2 2 2 2 2 1 -1 -2 -2 -2 -2 -2 -2 -2 -1 -1 -1 -1 -2 -2 -1 -0 -1 -1 -2 -2 -3 -3 -3 -3 -3 -2 -2 -1 0 -2 -2 -2 -3 -2 -1 -1 -5 -3 -5 -7 -8 -7 -7 -6 -4
3 3 2 2 2 2 2 2 1 -1 -2 -2 -3 -2 -2 -1 -1 -1 -1 -1 -1 -1 -2 -1 -1 -1 -2 -2 -3 -4 -4 -5 -4 -3 -3 -2 -1 -2 -4 -4 -3 -8 -9 -6 -4 -9 -9 -6 -9 -9 -8 -8 -8 -8
3 2 2 2 1 2 2 2 1 1 1 -1 -1 -2 -2 -1 -1 -1 -2 -2 -2 -2 -2 -2 -2 -2 -2 -3 -4 -5 -6 -5 -5 -3 -2 -2 -1 -2 -2 -4 -10 -11 -12 -12 -11 -11 -10 -10 -9 -9 -10 -10 -8 -9
2 2 2 1 1 1 1 1 1 1 0 0 -1 -2 -1 -1 -1 -1 -2 -2 -2 -2 -3 -3 -4 -3 -3 -4 -5 -5 -6 -5 -5 -3 -3 -2 -3 -3 -4 -8 -12 -13 -13 -13 -12 -11 -9 -11 -13 -12 -12 -10 -9 -9
2 1 1 1 1 1 1 1 1 1 -0 -1 -2 -2 -2 -2 -2 -2 -2 -2 -3 -3 -3 -4 -5 -3 -4 -4 -4 -5 -5 -4 -4 -4 -3 -3 -4 -7 -10 -13 -13 -14 -13 -12 -13 -14 -14 -14 -13 -12 -12 -11 -9 -9
-0 -0 -0 -0 0 0 1 0 -0 -1 -0 -0 -1 -2 -2 -2 -3 -3 -3 -3 -3 -3 -3 -3 -4 -5 -4 -4 -5 -5 -5 -6 -4 -4 -4 -4 -8 -11 -13 -14 -15 -15 -16 -16 -14 -14 -14 -14 -14 -13 -13 -12 -12 -11
-1 -1 -1 -1 -1 -0 -1 -1 -1 -2 -1 -2 -2 -3 -3 -3 -4 -4 -4 -4 -4 -5 -4 -4 -3 -6 -4 -4 -4 -5 -5 -5 -5 -5 -6 -8 -11 -13 -14 -15 -15 -15 -15 -15 -15 -15 -15 -15 -15 -15 -15 -14 -14 -13
-2 -2 -2 -1 -1 -1 -2 -1 -1 -2 -2 -3 -3 -3 -4 -3 -4 -4 -4 -4 -4 -4 -4 -3 -5 -5 -6 -6 -6 -5 -6 -6 -5 -6 -5 -7 -10 -13 -14 -15 -15 -15 -15 -16 -16 -16 -16 -16 -16 -16 -15 -15 -14 -14
-3 -2 -2 -2 -2 -2 -3 -2 -3 -4 -4 -4 -4 -4 -4 -4 -4 -6 -6 -7 -6 -4 -4 -5 -5 -6 -6 -7 -7 -7 -7 -6 -5 -7 -5 -8 -12 -14 -15 -15 -15 -15 -15 -16 -16 -16 -16 -16 -16 -16 -16 -15 -15 -14
-3 -2 -2 -2 -2 -3 -3 -3 -4 -5 -4 -4 -4 -4 -4 -5 -7 -6 -7 -7 -4 -4 -5 -6 -5 -6 -7 -7 -6 -8 -7 -7 -6 -7 -9 -12 -14 -15 -16 -16 -16 -15 -15 -15 -16 -16 -16 -16 -16 -16 -15 -15 -15 -15
-3 -3 -2 -2 -3 -3 -3 -2 -2 -3 -4 -4 -4 -3 -5 -5 -5 -5 -4 -4 -5 -6 -6 -6 -6 -6 -6 -7 -8 -7 -8 -9 -8 -8 -10 -14 -16 -16 -16 -16 -16 -16 -16 -16 -16 -16 -16 -16 -16 -16 -16 -16 -15 -15
-3 -3 -2 -3 -3 -3 -2 -3 -2 -4 -4 -4 -4 -4 -4 -5 -5 -6 -7 -6 -8 -7 -7 -6 -7 -7 -7 -8 -9 -9 -8 -8 -10 -11 -14 -16 -17 -17 -17 -17 -16 -16 -16 -16 -16 -16 -16 -16 -16 -16 -16 -16 -16 -15
-4 -3 -4 -4 -3 -3 -3 -3 -4 -5 -4 -5 -5 -5 -6 -5 -7 -8 -10 -10 -10 -9 -8 -7 -6 -8 -9 -8 -8 -8 -8 -10 -14 -15 -17 -17 -17 -17 -17 -18 -17 -17 -17 -17 -17 -17 -17 -17 -17 -17 -17 -16 -17 -16
-4 -4 -4 -3 -3 -3 -4 -5 -5 -4 -4 -5 -7 -9 -9 -10 -10 -11 -13 -13 -12 -11 -7 -7 -6 -7 -10 -9 -12 -14 -15 -15 -16 -17 -18 -18 -18 -18 -18 -18 -18 -18 -18 -18 -18 -17 -18 -18 -18 -17 -17 -17 -17 -18
-4 -4 -4 -4 -4 -3 -5 -5 -5 -5 -8 -9 -9 -11 -12 -12 -13 -14 -14 -13 -13 -13 -11 -11 -11 -13 -15 -14 -15 -17 -17 -17 -17 -18 -18 -18 -18 -18 -18 -19 -19 -19 -18 -18 -19 -19 -18 -18 -18 -18 -19 -19 -18 -18
-5 -4 -4 -4 -5 -5 -7 -6 -6 -9 -10 -10 -11 -12 -13 -14 -15 -15 -15 -14 -15 -14 -14 -15 -16 -17 -17 -19 -19 -19 -20 -20 -19 -18 -18 -19 -19 -19 -19 -19 -19 -19 -19 -19 -19 -20 -20 -20 -20 -20 -20 -20 -20 -20
-4 -4 -5 -5 -6 -7 -7 -7 -8 -9 -10 -12 -12 -13 -14 -15 -15 -16 -16 -16 -16 -17 -19 -19 -19 -20 -20 -21 -21 -21 -20 -20 -19 -19 -19 -19 -19 -19 -19 -19 -19 -20 -20 -20 -20 -20 -20 -20 -20 -21 -21 -21 -20 -20
-4 -5 -5 -7 -7 -7 -8 -9 -10 -11 -12 -12 -13 -14 -15 -16 -17 -17 -18 -18 -19 -20 -19 -20 -21 -21 -21 -20 -20 -20 -20 -20 -20 -20 -20 -20 -20 -20 -20 -20 -20 -21 -20 -21 -21 -21 -21 -21 -22 -22 -22 -21 -21 -21
-6 -6 -7 -8 -8 -8 -9 -11 -11 -12 -12 -14 -14 -15 -17 -17 -18 -19 -19 -20 -20 -21 -21 -21 -20 -21 -20 -20 -20 -20 -20 -20 -20 -20 -20 -20 -20 -21 -21 -21 -21 -21 -22 -22 -22 -22 -22 -22 -23 -23 -22 -22 -22 -22
-6 -7 -8 -8 -8 -9 -12 -12 -12 -13 -19 -15 -15 -19 -17 -18 -18 -18 -20 -20 -21 -21 -20 -20 -20 -20 -20 -20 -20 -20 -20 -20 -20 -20 -20 -21 -21 -22 -22 -22 -22 -22 -22 -23 -23 -23 -23 -24 -23 -23 -23 -23 -23 -22
-8 -8 -9 -10 -12 -16 -13 -14 -14 -15 -15 -19 -22 -22 -21 -19 -19 -19 -24 -20 -21 -21 -20 -20 -20 -20 -20 -20 -20 -20 -20 -21 -21 -21 -21 -21 -22 -22 -22 -22 -23 -23 -23 -23 -23 -23 -24 -24 -24 -24 -24 -24 -23 -23
-8 -13 -13 -17 -15 -16 -22 -23 -21 -21 -22 -24 -23 -24 -21 -19 -26 -26 -24 -21 -21 -21 -20 -20 -19 -19 -20 -20 -20 -21 -21 -21 -21 -21 -22 -22 -22 -22 -23 -23 -23 -23 -24 -24 -24 -24 -24 -24 -24 -24 -24 -24 -24 -24
-17 -18 -18 -19 -19 -20 -21 -22 -23 -25 -25 -24 -24 -21 -20 -23 -26 -25 -23 -21 -21 -20 -20 -19 -19 -19 -20 -20 -20 -20 -21 -22 -22 -22 -22 -22 -23 -23 -23 -23 -23 -23 -24 -24 -24 -24 -24 -24 -24 -24 -24 -24 -24 -25
-20 -22 -19 -19 -19 -19 -20 -21 -21 -21 -25 -25 -26 -25 -26 -24 -25 -22 -21 -21 -20 -20 -20 -20 -20 -20 -20 -20 -20 -21 -22 -22 -22 -22 -22 -22 -23 -23 -23 -23 -24 -24 -24 -24 -24 -24 -25 -25 -25 -24 -24 -24 -25 -25
-19 -19 -22 -21 -20 -21 -25 -24 -26 -26 -27 -23 -23 -26 -25 -24 -23 -21 -21 -20 -20 -20 -20 -20 -20 -20 -20 -20 -21 -21 -22 -22 -22 -22 -22 -23 -23 -23 -24 -24 -24 -24 -25 -25 -25 -25 -25 -25 -25 -24 -24 -25 -26 -26
-19 -19 -19 -23 -22 -22 -22 -23 -23 -22 -22 -23 -25 -25 -22 -22 -21 -21 -20 -20 -20 -20 -20 -20 -20 -20 -20 -20 -21 -22 -22 -22 -22 -22 -23 -23 -23 -23 -24 -24 -24 -24 -24 -24 -24 -24 -24 -25 -24 -24 -25 -25 -25 -26
-20 -19 -20 -23 -25 -26 -23 -22 -22 -22 -23 -22 -22 -22 -22 -21 -21 -20 -20 -20 -20 -20 -20 -20 -20 -20 -20 -21 -21 -21 -22 -22 -22 -23 -23 -23 -23 -23 -24 -23 -23 -23 -24 -23 -23 -24 -24 -25 -25 -25 -25 -25 -26 -26
-20 -19 -20 -21 -23 -23 -22 -22 -22 -22 -22 -22 -22 -22 -21 -20 -20 -20 -20 -20 -20 -20 -20 -20 -20 -21 -21 -22 -22 -22 -21 -22 -22 -23 -23 -23 -23 -23 -23 -23 -23 -23 -23 -24 -24 -24 -25 -25 -25 -25 -25 -26 -26 -26
-20 -20 -20 -27 -23 -23 -22 -22 -22 -22 -22 -21 -21 -21 -21 -20 -20 -20 -20 -20 -20 -20 -21 -21 -21 -21 -22 -22 -22 -22 -22 -22 -22 -23 -23 -23 -23 -24 -23 -23 -23 -23 -24 -24 -24 -25 -25 -25 -25 -26 -26 -26 -26 -26
-21 -21 -22 -22 -23 -23 -23 -22 -22 -22 -22 -22 -21 -21 -21 -20 -20 -20 -20 -20 -20 -20 -20 -21 -21 -21 -21 -22 -22 -21 -22 -22 -23 -23 -23 -23 -24 -23 -23 -23 -23 -24 -24 -24 -24 -24 -25 -25 -25 -25 -26 -26 -26 -26
Height
1504 1501 1499 1497 1495 1492 1490 1488 1486 1485 1482 1479 1476 1473 1472 1470 1469 1469 1466 1464 1464 1459 1453 1451 1451 1450 1447 1447 1445 1441 1440 1437 1437 1435 1431 1426 1426 1421 1423 1415 1418 1419 1420 1425 1422 1414 1411 1399 1392 1396 1403 1399 1397 1394
1503 1501 1498 1496 1493 1490 1487 1485 1483 1480 1477 1475 1472 1470 1468 1465 1464 1462 1459 1458 1457 1454 1449 1447 1445 1442 1441 1442 1443 1441 1437 1435 1434 1433 1429 1425 1419 1419 1419 1415 1414 1420 1412 1409 1411 1404 1402 1403 1404 1405 1405 1403 1400 1397
1501 1499 1496 1494 1492 1489 1485 1482 1478 1475 1471 1469 1466 1464 1462 1459 1457 1458 1454 1452 1450 1446 1440 1437 1435 1436 1434 1435 1435 1437 1433 1432 1431 1431 1427 1424 1424 1418 1414 1417 1412 1412 1409 1410 1409 1403 1403 1406 1406 1407 1406 1405 1402 1398
1499 1497 1495 1493 1490 1486 1483 1480 1476 1473 1470 1467 1463 1459 1456 1454 1452 1452 1450 1448 1447 1442 1436 1432 1432 1431 1430 1430 1430 1430 1429 1428 1428 1428 1425 1421 1418 1412 1414 1411 1412 1415 1412 1408 1406 1407 1407 1408 1410 1410 1407 1405 1401 1399
1497 1495 1493 1490 1486 1483 1480 1477 1473 1470 1466 1462 1458 1455 1452 1448 1446 1445 1442 1440 1439 1443 1434 1429 1428 1426 1425 1425 1425 1425 1424 1424 1424 1422 1420 1416 1412 1412 1409 1411 1414 1425 1427 1420 1414 1422 1421 1414 1413 1410 1407 1404 1402 1399
1495 1492 1490 1488 1485 1481 1477 1473 1469 1465 1460 1456 1452 1448 1447 1445 1442 1438 1435 1434 1432 1433 1430 1429 1426 1423 1422 1422 1421 1421 1421 1421 1421 1417 1413 1409 1407 1410 1406 1410 1433 1431 1430 1429 1425 1422 1418 1416 1414 1411 1408 1405 1402 1399
1492 1490 1488 1485 1482 1478 1474 1469 1464 1460 1456 1450 1448 1444 1442 1440 1439 1437 1435 1432 1432 1432 1431 1428 1423 1421 1421 1420 1419 1419 1419 1418 1418 1414 1410 1408 1408 1407 1407 1422 1434 1431 1428 1426 1424 1419 1416 1415 1414 1410 1407 1404 1401 1398
1489 1487 1485 1482 1478 1474 1470 1465 1461 1456 1451 1445 1441 1440 1438 1437 1436 1435 1432 1430 1428 1429 1430 1429 1425 1422 1421 1420 1420 1418 1418 1416 1413 1411 1408 1407 1407 1412 1428 1437 1435 1431 1426 1425 1423 1421 1420 1417 1415 1410 1406 1402 1398 1396
1487 1485 1483 1480 1476 1472 1467 1463 1459 1454 1449 1443 1439 1435 1434 1434 1433 1432 1430 1429 1428 1432 1428 1427 1428 1428 1422 1420 1419 1419 1418 1417 1413 1412 1410 1411 1421 1433 1440 1438 1435 1432 1430 1427 1422 1420 1418 1416 1413 1409 1406 1402 1399 1395
1484 1482 1479 1477 1473 1469 1465 1460 1456 1452 1447 1442 1437 1434 1432 1432 1432 1432 1429 1431 1429 1429 1428 1428 1426 1427 1426 1422 1419 1420 1418 1416 1414 1416 1414 1421 1434 1440 1440 1439 1436 1433 1430 1426 1421 1418 1416 1416 1413 1410 1407 1404 1401 1398
1482 1480 1478 1474 1471 1467 1463 1459 1453 1448 1446 1442 1440 1436 1435 1433 1432 1430 1430 1432 1432 1430 1429 1428 1427 1427 1426 1427 1424 1422 1420 1417 1417 1418 1415 1421 1434 1442 1441 1438 1437 1434 1432 1430 1427 1425 1422 1419 1416 1412 1409 1406 1403 1400
1481 1479 1476 1472 1468 1464 1459 1454 1451 1448 1447 1445 1442 1437 1436 1434 1433 1434 1434 1435 1434 1431 1429 1429 1428 1427 1427 1426 1425 1423 1422 1419 1416 1419 1416 1428 1442 1443 1441 1439 1437 1435 1433 1431 1429 1427 1424 1422 1418 1415 1412 1408 1405 1402
1478 1476 1473 1469 1466 1461 1456 1451 1449 1446 1444 1440 1439 1436 1436 1436 1440 1439 1443 1438 1432 1431 1430 1430 1428 1428 1427 1426 1425 1425 1424 1422 1420 1422 1430 1441 1445 1443 1442 1440 1438 1436 1434 1432 1430 1427 1425 1423 1421 1417 1414 1411 1408 1405
1475 1472 1468 1465 1462 1458 1452 1448 1444 1442 1441 1440 1439 1437 1438 1438 1439 1439 1439 1438 1436 1433 1432 1431 1429 1428 1427 1426 1425 1426 1425 1424 1424 1426 1435 1445 1446 1444 1442 1440 1438 1436 1434 1432 1430 1428 1426 1424 1422 1420 1417 1414 1411 1408
1472 1469 1465 1462 1458 1454 1450 1446 1442 1440 1441 1441 1441 1440 1439 1441 1440 1441 1442 1440 1438 1435 1432 1430 1429 1428 1426 1426 1425 1426 1426 1428 1435 1439 1445 1448 1447 1445 1443 1441 1438 1437 1435 1433 1431 1429 1427 1425 1423 1421 1419 1416 1414 1411
1467 1464 1461 1457 1454 1450 1447 1443 1441 1441 1440 1441 1441 1441 1442 1440 1442 1441 1440 1441 1439 1434 1431 1430 1427 1428 1428 1425 1426 1427 1426 1434 1446 1450 1451 1449 1447 1446 1444 1442 1440 1438 1436 1434 1432 1430 1428 1426 1424 1422 1421 1418 1415 1413
1464 1461 1459 1454 1450 1446 1443 1442 1441 1441 1440 1441 1446 1446 1446 1444 1445 1444 1443 1443 1439 1435 1431 1428 1425 1424 1427 1426 1436 1445 1449 1453 1454 1453 1452 1450 1448 1446 1445 1443 1441 1439 1437 1435 1433 1431 1429 1428 1426 1424 1421 1420 1418 1416
1460 1457 1453 1448 1444 1442 1443 1442 1441 1443 1444 1445 1448 1448 1447 1446 1446 1444 1443 1442 1440 1437 1436 1436 1435 1439 1446 1445 1451 1457 1457 1456 1454 1454 1452 1450 1448 1446 1444 1443 1441 1439 1437 1436 1434 1432 1430 1428 1426 1424 1422 1421 1419 1417
1456 1453 1450 1447 1445 1444 1442 1443 1443 1446 1449 1449 1450 1450 1449 1448 1447 1445 1443 1441 1441 1440 1439 1442 1448 1453 1457 1461 1461 1460 1459 1457 1455 1454 1452 1451 1449 1446 1444 1443 1441 1439 1437 1436 1435 1433 1431 1428 1427 1425 1423 1420 1418 1417
1453 1450 1445 1443 1443 1443 1441 1442 1443 1446 1448 1451 1450 1450 1451 1451 1449 1446 1444 1442 1441 1442 1448 1455 1462 1464 1463 1463 1462 1461 1459 1457 1456 1454 1453 1451 1449 1446 1444 1442 1440 1438 1436 1435 1434 1433 1430 1429 1427 1425 1423 1420 1418 1416
1447 1446 1443 1443 1442 1443 1443 1443 1444 1446 1448 1449 1451 1451 1452 1452 1450 1448 1446 1445 1446 1455 1462 1465 1465 1464 1464 1463 1462 1461 1459 1457 1456 1455 1453 1450 1448 1445 1443 1441 1439 1437 1435 1434 1432 1430 1429 1427 1426 1424 1422 1419 1418 1416
1445 1443 1443 1441 1443 1444 1446 1445 1445 1446 1449 1450 1451 1452 1454 1455 1455 1453 1452 1451 1459 1464 1464 1465 1465 1465 1464 1463 1462 1460 1459 1457 1455 1454 1451 1449 1446 1444 1442 1440 1438 1436 1435 1433 1432 1430 1428 1427 1425 1423 1421 1418 1416 1415
1441 1441 1440 1440 1443 1444 1449 1447 1446 1447 1449 1452 1453 1455 1457 1458 1458 1457 1458 1462 1465 1466 1466 1466 1465 1465 1464 1463 1462 1461 1459 1457 1454 1452 1449 1447 1444 1442 1440 1438 1436 1435 1434 1432 1431 1429 1428 1426 1424 1421 1419 1417 1415 1412
1440 1438 1439 1441 1444 1447 1448 1448 1450 1450 1451 1453 1456 1461 1461 1460 1460 1459 1464 1465 1466 1466 1466 1466 1465 1465 1465 1463 1462 1460 1457 1455 1453 1450 1447 1444 1442 1440 1438 1436 1435 1434 1432 1431 1429 1428 1426 1424 1422 1420 1417 1415 1412 1410
1442 1445 1446 1445 1445 1447 1450 1453 1454 1454 1460 1460 1462 1463 1461 1461 1463 1466 1465 1465 1466 1466 1466 1466 1465 1465 1464 1463 1461 1458 1456 1453 1450 1447 1445 1442 1440 1439 1437 1435 1433 1432 1430 1429 1427 1425 1424 1421 1419 1417 1415 1412 1409 1407
1446 1451 1451 1447 1448 1449 1453 1458 1460 1462 1462 1463 1463 1462 1462 1462 1467 1469 1463 1463 1464 1465 1466 1465 1465 1464 1463 1461 1459 1457 1454 1451 1448 1445 1443 1441 1439 1437 1435 1433 1431 1430 1428 1427 1425 1422 1420 1418 1415 1413 1410 1408 1405 1403
1449 1453 1451 1450 1451 1450 1452 1456 1458 1459 1464 1466 1464 1463 1463 1469 1468 1462 1461 1462 1463 1464 1465 1465 1465 1463 1462 1460 1457 1455 1452 1449 1446 1443 1441 1439 1438 1436 1434 1432 1429 1428 1426 1424 1422 1419 1416 1413 1411 1408 1405 1403 1400 1397
1445 1447 1450 1453 1451 1450 1453 1456 1460 1463 1462 1462 1463 1465 1465 1462 1461 1459 1459 1461 1462 1464 1464 1464 1463 1462 1460 1457 1454 1451 1449 1446 1443 1441 1439 1438 1436 1434 1431 1429 1427 1424 1422 1420 1417 1415 1412 1409 1406 1403 1400 1396 1393 1391
1445 1445 1448 1451 1451 1451 1453 1456 1459 1460 1460 1460 1460 1459 1458 1457 1457 1457 1459 1460 1462 1463 1463 1463 1462 1460 1458 1455 1452 1449 1445 1442 1440 1437 1436 1434 1432 1431 1428 1425 1423 1421 1419 1416 1414 1411 1407 1405 1403 1401 1396 1391 1387 1383
1444 1445 1445 1448 1450 1454 1455 1456 1458 1459 1459 1459 1458 1458 1458 1457 1457 1457 1459 1460 1461 1462 1462 1461 1459 1456 1453 1450 1446 1445 1444 1440 1437 1435 1432 1430 1428 1426 1423 1421 1418 1415 1412 1409 1406 1403 1401 1398 1394 1391 1387 1383 1380 1376
1442 1443 1445 1448 1451 1454 1455 1457 1458 1459 1458 1458 1458 1458 1457 1457 1457 1458 1459 1460 1460 1460 1460 1459 1457 1454 1450 1447 1443 1439 1437 1437 1434 1432 1429 1426 1423 1420 1418 1415 1412 1408 1405 1402 1399 1396 1393 1389 1386 1382 1378 1375 1373 1370
1443 1444 1445 1451 1454 1456 1457 1458 1458 1458 1458 1458 1458 1458 1458 1457 1458 1458 1458 1458 1458 1458 1457 1456 1453 1449 1447 1444 1441 1438 1435 1432 1430 1428 1425 1422 1418 1415 1412 1408 1405 1402 1398 1395 1393 1389 1386 1382 1378 1375 1372 1369 1367 1364
1444 1446 1448 1451 1454 1455 1456 1457 1457 1458 1458 1457 1457 1457 1457 1458 1457 1458 1457 1457 1457 1456 1455 1453 1449 1446 1443 1440 1437 1434 1431 1429 1426 1423 1421 1417 1415 1412 1409 1404 1401 1396 1393 1389 1385 1382 1379 1376 1372 1369 1367 1364 1361 1358
Wind_Speed
11 13 15 16 16 15 15 16 15 15 16 15 15 14 14 13 13 14 14 13 11 8 18 21 12 15 17 13 6 3 4 2 3 3 2 4 2 3 2 2 3 4 4 3 2 3 6 14 7 4 4 7 13 15
12 14 15 16 16 16 16 16 18 18 17 18 18 18 17 14 13 14 20 17 17 18 16 29 31 30 26 27 19 9 5 1 4 3 2 2 2 0 1 2 3 2 3 1 3 2 3 8 6 14 15 15 18 18
13 14 15 15 17 18 18 18 19 20 21 19 19 20 19 18 18 15 19 18 20 18 20 16 10 16 12 13 13 8 7 6 7 10 3 2 4 1 3 4 1 2 2 1 2 3 4 14 11 15 16 16 16 15
13 14 15 16 18 20 21 21 21 23 24 23 24 22 21 17 14 17 21 19 20 11 4 6 10 12 14 14 15 19 25 19 18 14 6 4 3 4 2 1 1 2 1 3 3 5 6 16 21 19 21 16 18 14
11 13 14 16 18 21 23 24 23 21 22 24 23 23 23 13 12 18 19 24 23 16 4 5 19 24 13 9 11 14 17 15 12 5 4 3 3 2 2 1 3 7 5 3 2 5 6 6 20 17 23 24 20 20
12 13 16 17 19 21 24 26 27 25 25 24 24 20 16 13 13 19 7 4 5 19 6 2 5 7 8 6 9 7 6 9 10 5 3 5 5 5 2 2 5 12 10 8 6 19 18 16 11 16 21 21 20 16
13 15 17 19 21 22 24 26 27 28 28 26 24 22 18 16 18 14 6 9 16 12 3 3 3 2 6 5 3 2 5 5 7 4 5 3 2 4 3 3 11 16 17 2 10 20 5 8 15 21 21 18 16 14
15 16 17 19 21 22 24 25 27 27 28 26 20 19 18 14 9 12 16 18 14 7 3 2 3 1 4 2 2 3 3 4 5 3 3 2 2 6 4 8 14 18 17 4 19 11 9 14 14 17 18 17 16 16
15 16 17 20 21 22 23 25 24 26 27 23 16 16 11 4 3 4 6 5 8 5 2 2 1 3 5 2 3 3 2 2 1 1 2 4 4 5 5 11 14 17 14 17 18 7 13 13 17 19 19 18 19 20
13 15 18 20 22 20 22 26 25 24 25 21 12 4 3 3 8 8 4 2 2 1 1 2 2 2 6 6 2 3 2 2 2 2 4 3 3 6 12 11 12 14 15 16 18 21 22 21 22 22 20 18 17 18
14 17 19 21 22 20 25 25 26 27 19 14 9 4 7 14 4 2 1 2 3 1 2 2 2 2 4 1 2 2 2 1 2 2 3 2 2 3 12 13 13 13 14 15 14 13 13 15 19 20 20 19 17 17
15 18 22 23 21 24 28 26 21 20 18 18 15 16 7 3 2 2 2 2 0 2 1 2 0 1 3 2 2 1 2 1 1 4 1 2 2 8 12 14 13 14 14 14 14 14 15 16 17 18 19 19 18 18
15 17 21 21 22 26 27 25 22 20 17 9 3 3 3 3 5 3 4 3 2 1 2 3 1 1 2 1 3 1 1 1 2 2 2 2 6 10 12 13 12 12 12 12 13 14 14 15 17 19 20 19 17 17
17 19 21 19 26 27 25 24 21 16 5 2 3 4 2 2 2 2 2 3 6 7 9 5 2 1 1 1 1 1 1 2 2 2 2 3 9 10 10 11 12 13 13 12 13 13 14 14 15 16 18 19 19 20
19 21 19 24 25 23 22 23 18 9 2 2 2 2 2 4 1 6 11 7 9 10 9 5 2 2 1 1 0 1 2 0 3 2 2 7 8 9 10 12 12 12 13 13 13 13 13 13 13 14 16 17 18 18
20 21 21 26 22 19 23 20 9 3 1 1 3 4 11 1 5 8 15 9 15 15 8 5 2 1 3 1 1 2 2 2 2 2 6 6 8 9 10 10 10 10 11 11 12 12 11 12 13 13 13 14 17 17
21 21 27 25 21 22 17 7 3 2 2 3 4 8 5 4 4 6 10 13 19 9 2 3 3 1 2 1 3 4 4 3 9 7 6 7 7 8 8 9 9 9 10 10 10 11 12 11 9 9 12 13 13 14
21 23 24 21 22 17 6 3 2 2 5 6 3 5 4 6 5 7 13 14 11 9 7 3 6 5 4 4 3 4 7 8 6 6 8 8 8 8 7 7 8 9 9 10 11 12 10 11 12 13 12 12 11 11
24 24 19 21 19 8 2 3 3 3 3 3 3 5 4 4 8 8 14 10 2 6 2 5 5 3 3 5 5 8 9 9 11 9 8 11 11 10 9 8 7 8 9 8 9 13 14 13 13 13 13 14 14 12
20 17 19 18 11 1 1 2 2 3 3 2 4 4 2 3 7 9 14 11 11 5 8 4 3 3 3 4 4 5 8 9 9 8 7 10 13 12 12 11 10 9 9 9 6 7 12 9 11 13 14 12 13 13
14 18 16 9 1 2 2 2 4 4 2 3 2 2 2 4 7 12 12 11 8 6 4 6 5 5 5 6 6 6 7 8 9 8 12 14 14 13 12 11 10 9 10 9 9 8 10 11 12 16 16 14 12 10
18 15 7 2 1 2 3 4 3 3 2 3 3 4 5 4 6 8 6 11 6 5 3 3 4 3 4 6 7 9 11 11 10 10 9 11 12 12 12 13 12 9 10 10 11 11 11 11 11 16 15 14 14 13
14 6 0 1 2 1 1 2 2 3 3 2 2 3 3 3 6 3 5 5 4 5 4 4 4 6 7 8 8 10 12 14 14 14 13 12 11 10 12 12 11 9 8 10 10 10 10 11 12 14 15 15 16 15
8 1 1 2 4 1 2 4 3 3 3 4 3 2 2 3 4 4 2 3 3 2 3 4 4 5 6 8 10 12 14 16 16 14 14 13 11 11 11 10 9 9 9 10 10 11 12 13 14 15 17 17 17 16
2 5 2 4 4 3 5 4 5 4 2 2 3 3 3 3 2 2 2 3 3 3 4 4 5 7 9 11 12 14 16 18 20 19 15 13 13 11 9 9 9 9 9 9 12 14 14 16 17 18 19 19 20 21
4 4 3 1 3 3 1 2 2 2 2 2 1 2 2 2 3 2 2 7 7 6 4 5 7 9 11 13 15 16 18 19 19 17 14 12 11 12 12 11 10 10 10 12 16 17 19 20 21 22 23 20 17 20
3 2 2 3 4 5 5 4 4 3 2 2 2 1 2 2 2 3 5 9 9 7 5 5 8 12 16 18 17 16 18 19 17 15 11 10 9 12 13 13 12 13 15 16 16 20 23 25 25 25 22 21 22 22
3 4 4 3 4 3 5 3 2 3 2 3 2 0 5 5 4 4 7 11 10 8 3 3 8 13 18 22 23 20 20 18 15 11 10 9 10 12 13 11 14 17 17 18 21 24 24 25 25 24 26 25 23 26
3 7 5 4 4 4 3 2 2 3 3 4 3 2 2 3 3 7 11 12 11 7 1 7 13 17 20 24 23 19 19 19 18 14 13 14 14 14 17 15 18 16 15 22 22 22 23 19 21 23 28 32 30 27
4 6 4 3 3 1 2 3 3 4 4 3 2 1 0 1 4 9 12 12 11 6 6 12 19 21 25 28 26 21 16 15 14 14 17 19 20 22 22 22 17 21 25 24 25 23 21 24 29 28 27 25 23 24
7 4 4 4 3 3 6 7 6 5 3 2 2 1 1 1 4 6 8 10 10 10 13 16 17 22 24 21 21 24 23 18 15 14 17 20 24 24 25 23 27 24 25 25 23 24 28 31 30 28 27 26 24 23
3 3 4 3 3 8 8 4 2 2 2 1 1 1 1 1 1 1 3 7 10 11 8 14 25 22 17 18 19 19 22 19 15 17 21 24 25 28 28 29 27 28 24 23 26 31 32 30 28 27 26 25 24 24
5 5 5 5 4 5 5 4 2 2 2 1 1 0 1 1 1 1 3 5 7 10 14 22 22 19 19 20 20 20 16 16 19 23 25 23 23 25 26 21 21 21 28 32 34 31 29 26 25 24 23 23 24 24
Wind_Direction
349 348 343 344 342 343 345 339 331 330 329 323 327 325 327 314 299 292 287 282 270 254 270 278 269 265 270 276 279 303 291 196 194 257 247 238 233 209 338 245 188 175 189 198 200 232 261 1 20 35 339 355 353 349
343 342 342 342 344 339 337 332 326 317 309 301 304 297 295 293 299 292 283 287 279 251 261 283 282 289 272 266 273 263 262 349 242 269 274 300 274 326 276 263 329 286 202 357 216 254 61 36 59 41 26 11 353 343
339 338 342 345 343 340 337 334 330 324 320 316 311 309 303 291 278 276 283 284 276 271 280 274 289 306 278 268 271 234 245 245 239 255 331 297 260 157 230 237 151 290 146 224 29 3 350 54 60 22 10 357 341 2
336 343 344 343 341 341 338 335 334 334 331 327 325 314 303 295 298 287 278 281 277 265 251 264 273 285 291 276 261 244 247 253 266 277 255 234 238 216 242 211 132 18 335 273 251 42 31 66 22 1 360 355 352 350
339 342 340 339 341 340 336 332 329 320 321 316 317 316 310 295 292 294 293 280 271 251 283 267 290 289 292 300 281 269 266 263 260 228 219 237 234 210 195 65 72 360 2 337 15 33 321 310 348 352 356 356 350 346
341 339 337 336 336 335 332 332 332 327 322 317 313 311 306 295 300 303 310 327 261 245 283 299 290 281 303 303 293 290 285 250 239 269 227 235 210 183 268 91 47 12 353 337 313 319 305 307 321 335 345 345 346 346
341 338 338 337 335 334 332 331 332 332 329 323 317 306 294 295 287 266 242 280 301 295 261 277 269 268 307 326 329 292 269 248 234 256 222 246 192 227 13 69 354 348 345 14 354 349 4 325 335 340 340 337 336 337
341 345 341 338 337 335 331 332 334 336 333 324 317 314 299 307 288 270 282 281 279 214 216 290 283 278 357 359 313 314 288 263 238 276 302 318 80 45 64 360 350 350 358 207 344 355 335 325 332 343 348 349 349 348
340 342 340 338 339 337 336 337 340 342 341 339 318 307 314 316 282 293 303 265 225 231 274 207 253 288 351 339 306 311 317 292 319 283 46 350 31 50 350 343 350 355 357 334 351 15 357 4 359 1 0 4 5 1
344 342 341 338 339 341 339 337 338 337 340 336 336 329 303 314 300 306 351 14 46 339 312 281 310 303 346 358 309 321 207 288 321 50 333 68 87 110 16 4 359 2 5 4 7 5 4 6 8 7 7 9 6 3
354 347 345 341 339 341 339 336 334 339 344 352 333 301 306 320 305 6 27 354 23 312 213 288 317 329 348 331 325 5 321 298 292 22 326 86 81 36 3 12 10 13 18 22 21 16 10 6 4 7 14 17 15 16
355 347 344 340 338 337 336 335 336 338 329 313 309 289 313 3 20 38 12 5 326 321 346 300 184 276 317 313 282 288 294 335 339 314 319 86 80 11 11 14 14 16 21 24 21 22 23 23 22 22 22 23 22 23
352 344 341 338 338 337 336 335 335 329 328 321 306 311 349 347 30 51 334 309 307 280 281 307 285 308 317 331 272 349 283 282 290 37 67 65 45 13 13 11 16 16 21 23 24 26 27 29 29 28 29 30 30 32
343 344 342 340 341 336 333 334 338 331 316 303 334 310 36 359 59 29 330 331 332 324 322 301 284 301 267 276 358 298 267 30 309 163 76 52 25 12 12 9 14 18 21 21 21 20 22 25 28 28 31 30 30 33
334 339 342 345 340 334 333 334 332 319 229 313 321 295 50 6 301 23 2 344 356 334 322 295 273 256 207 285 184 339 340 206 40 50 56 37 11 6 8 6 10 15 17 20 20 20 20 20 22 23 23 26 29 29
334 341 339 339 338 337 331 333 349 31 22 359 12 340 352 31 36 14 1 342 337 335 314 257 281 258 254 192 169 20 303 53 42 46 32 7 3 5 8 2 3 7 10 13 17 19 17 17 18 15 13 20 23 22
336 340 335 336 339 339 335 3 45 46 6 36 79 37 25 74 49 6 350 328 340 347 328 314 256 312 326 115 64 16 34 25 23 34 3 3 360 358 360 356 2 5 8 8 6 10 16 13 6 6 17 18 16 17
330 332 332 334 337 343 340 17 69 31 69 43 74 22 38 56 33 17 2 349 1 353 348 23 339 38 32 17 55 27 10 358 10 7 360 360 360 360 357 352 351 353 353 357 4 2 1 6 11 17 11 8 5 5
327 329 331 332 335 331 22 27 38 83 70 91 70 33 45 47 22 1 3 3 6 13 75 39 48 35 45 33 6 9 4 5 336 327 336 358 357 354 356 353 345 343 346 349 4 357 357 354 359 2 356 355 358 4
324 326 331 330 333 131 80 62 62 91 80 57 45 25 60 30 13 10 15 30 56 51 49 43 43 37 30 6 5 357 350 358 1 21 356 353 339 343 342 346 345 341 334 333 332 343 340 344 353 2 5 355 357 3
332 334 330 333 27 79 91 87 72 81 92 95 71 60 35 27 20 14 17 21 61 38 70 59 71 65 63 49 35 20 8 3 1 349 346 337 329 334 335 340 343 340 341 341 345 349 351 356 357 348 352 352 357 358
335 330 322 352 74 80 87 59 88 74 97 91 45 50 45 28 10 7 17 44 61 38 87 109 94 69 28 24 22 19 14 4 353 343 326 327 330 330 335 334 334 334 328 334 338 338 345 343 358 333 343 348 347 343
335 325 326 76 152 94 65 71 77 55 80 57 53 48 33 33 360 17 68 61 85 57 72 64 47 39 23 16 11 2 356 355 354 349 343 339 332 327 329 325 324 325 323 326 332 336 343 343 339 339 341 337 336 337
332 308 39 53 36 76 65 45 53 64 69 41 54 29 350 346 360 63 76 78 111 112 99 82 58 47 24 3 352 352 350 349 349 348 338 337 337 336 332 333 335 332 327 327 331 337 338 339 337 336 335 335 335 334
352 9 16 29 45 68 47 17 2 49 65 342 66 346 323 349 65 57 146 139 153 153 107 69 48 30 16 7 357 348 347 345 342 344 343 342 338 337 334 331 330 332 330 326 327 332 336 336 335 334 332 329 326 330
69 360 27 69 21 95 131 87 51 166 92 29 266 299 344 79 68 210 186 172 177 150 108 62 36 23 11 356 349 348 344 339 335 336 338 340 339 340 340 339 339 337 336 331 329 330 330 331 330 330 329 327 322 316
118 237 92 87 102 112 91 86 100 95 113 190 250 359 62 75 242 212 185 175 166 149 118 61 32 17 10 3 351 342 340 337 332 331 334 336 339 340 333 327 330 327 323 320 322 326 325 325 324 326 326 324 320 314
115 127 151 145 104 81 116 80 107 181 218 194 181 125 166 187 220 180 177 173 169 165 145 16 358 353 354 353 348 340 337 337 333 323 325 329 336 341 335 321 326 322 318 316 320 317 315 315 320 324 324 318 312 308
107 134 144 82 91 75 80 127 176 196 191 186 166 213 232 231 207 187 176 177 180 184 268 344 342 338 337 335 340 338 336 331 329 324 319 323 327 336 337 327 326 316 310 312 310 310 310 313 314 310 300 298 302 304
152 146 114 98 91 151 129 163 177 166 168 174 171 171 186 199 186 180 185 192 198 231 290 323 330 329 329 330 330 335 343 332 327 320 317 320 323 327 329 329 326 323 318 311 313 314 314 313 315 317 313 313 314 312
136 120 91 79 102 139 145 140 138 132 125 116 125 131 93 109 177 204 213 214 236 272 300 315 323 327 323 326 328 329 333 337 333 322 317 318 319 323 327 330 329 320 318 318 316 315 317 318 319 319 319 318 319 316
110 95 110 103 131 150 147 172 161 152 150 152 124 132 115 124 207 249 252 252 261 273 286 323 333 332 329 327 325 322 319 322 323 324 324 321 322 323 326 328 320 320 314 311 313 315 317 317 316 317 317 317 318 316
108 113 108 114 134 180 173 165 150 142 142 146 129 160 207 266 256 268 273 269 273 285 298 319 328 331 332 330 327 326 322 320 322 324 322 314 313 314 308 314 322 314 312 310 310 312 314 315 314 315 315 314 315 316